Wind_Speed
27 27 26 26 25 23 21 19 16 14 12 11 9 8 7 6 4 4 4 5 6 7 8 8 9 9 10 10 10 10 10 11 11 11 11 12 13 14 14 15 16 17 19 19
28 27 27 26 24 22 20 19 17 15 13 11 9 8 6 4 3 3 4 5 7 7 8 8 9 10 10 9 10 10 10 10 11 11 11 12 12 13 14 15 16 17 19 20
28 28 27 25 23 21 19 19 17 15 13 10 9 7 6 4 3 3 4 6 7 7 7 8 9 9 9 9 9 10 10 10 10 11 11 12 12 13 14 15 16 17 19 20
28 27 25 24 22 21 20 18 17 15 13 11 9 7 6 3 2 3 4 5 6 7 7 8 9 9 9 9 9 10 10 10 10 11 11 12 12 13 14 15 16 17 19 20
27 26 25 23 22 21 20 18 17 15 12 11 9 7 5 3 2 3 4 4 5 6 7 8 8 9 9 9 9 10 10 10 10 11 12 12 13 13 14 15 16 17 18 19
25 24 23 22 21 19 19 17 15 14 13 11 9 6 4 3 3 3 4 5 6 6 7 8 8 8 9 9 9 9 9 10 10 11 12 13 14 14 15 15 16 17 18 19
23 22 20 20 19 18 18 17 16 15 13 11 8 7 5 4 3 3 4 5 5 6 7 8 8 8 9 9 9 9 9 10 11 12 12 13 14 15 15 16 16 17 18 18
21 20 20 19 18 17 17 16 15 13 12 10 8 7 5 3 3 3 4 5 6 6 7 8 8 8 9 9 9 9 10 11 12 13 13 14 14 15 16 16 16 17 17 18
20 18 17 16 16 16 16 14 13 12 11 9 8 6 4 3 3 3 4 5 6 6 7 7 8 8 9 9 10 10 10 11 13 13 14 15 15 16 16 16 16 17 17 17
18 16 16 15 15 14 13 13 13 12 11 9 7 5 4 4 3 3 4 4 5 6 7 7 8 8 9 9 10 10 11 12 13 14 15 15 16 16 16 17 17 17 17 17
16 14 14 13 13 13 13 12 11 11 10 8 7 6 5 3 3 3 3 4 5 5 6 7 8 9 9 10 10 11 12 13 14 14 15 16 17 17 17 17 17 17 17 17
15 14 12 12 12 12 12 11 10 10 9 8 7 6 5 4 3 3 3 3 4 5 6 7 8 9 10 10 11 12 13 14 15 16 17 17 18 18 18 19 19 18 18 18
14 13 12 12 11 11 11 10 10 9 8 7 7 5 4 3 3 2 3 4 5 6 7 7 8 9 10 11 12 13 14 15 16 17 18 19 19 20 20 20 20 20 19 19
13 13 13 12 12 11 10 10 9 8 8 7 6 5 4 3 2 2 3 4 6 6 7 8 9 10 12 13 14 14 15 16 17 18 19 20 20 21 21 22 22 21 21 20
13 13 13 12 11 10 10 9 9 8 8 7 6 5 4 3 3 3 4 5 6 7 8 9 11 12 13 14 16 17 17 18 19 20 21 22 22 23 23 23 23 23 23 22
13 12 12 11 11 10 9 9 8 8 7 6 6 5 4 4 4 4 5 7 7 8 9 11 12 14 15 16 17 18 20 21 22 23 24 24 25 25 25 25 25 24 24 24
12 12 11 11 10 10 9 9 8 8 7 6 6 6 5 5 5 6 7 8 9 10 11 12 13 14 16 17 18 20 21 22 24 25 26 27 28 28 28 27 27 26 26 26
13 12 12 11 10 10 9 9 8 8 8 7 7 7 7 7 8 9 9 10 11 12 13 14 15 17 18 19 21 22 23 25 26 27 28 29 30 30 30 30 30 29 29 29
13 13 12 12 11 10 10 10 10 9 9 8 8 9 9 10 11 11 12 13 13 14 15 17 18 19 21 22 24 25 27 28 29 30 31 32 32 33 33 33 33 33 33 32
14 14 13 13 13 12 12 12 12 11 10 11 11 11 12 13 14 14 15 16 16 17 18 19 21 22 24 25 27 28 30 31 32 34 34 34 35 36 36 36 36 37 36 36
17 16 16 16 16 15 14 14 14 14 13 14 14 14 15 16 17 17 18 18 19 20 21 22 24 25 27 28 30 32 33 35 36 37 37 38 39 39 39 39 39 39 39 39
19 19 18 18 18 17 17 17 17 17 17 16 17 17 18 19 20 20 21 22 22 23 24 26 27 29 31 32 34 35 37 38 39 40 41 42 43 43 43 42 42 41 41 41
22 21 21 21 21 20 20 20 20 20 20 20 21 21 22 22 23 23 24 25 26 27 28 30 31 33 34 36 37 38 40 41 42 43 44 45 45 46 45 45 45 44 44 43
24 24 24 24 24 24 24 24 24 24 24 24 24 24 25 26 26 27 27 28 29 30 31 33 35 36 37 39 40 41 42 43 44 46 47 47 47 47 48 47 46 46 46 46
28 28 27 27 27 28 28 28 28 28 27 27 28 28 28 29 29 30 31 32 33 34 35 37 38 39 40 42 43 45 46 47 48 49 49 49 49 49 49 48 48 47 47 48
31 31 32 31 31 32 31 31 31 31 31 31 31 31 31 32 33 33 34 35 36 38 39 40 42 43 44 45 47 48 50 51 51 52 52 51 51 51 51 50 49 49 50 49
Wind_Direction
175 177 179 181 183 185 187 190 191 190 187 185 184 187 193 203 221 247 273 294 304 309 312 309 305 303 300 299 297 296 297 295 295 300 308 316 323 328 333 339 342 343 344 344
170 173 175 177 180 181 184 186 186 181 178 177 180 186 192 208 231 264 287 300 307 312 311 308 304 303 302 300 300 300 302 301 299 302 310 315 322 329 335 340 344 346 346 346
166 169 171 174 176 179 179 179 178 177 176 178 180 185 190 199 233 278 296 305 309 310 306 305 306 307 306 304 302 300 302 303 303 305 311 316 322 329 336 340 344 347 348 349
164 166 169 172 175 175 174 174 175 173 173 175 173 185 193 202 246 287 302 309 312 313 313 315 315 315 315 312 307 303 303 304 305 307 311 316 321 328 336 340 344 348 350 352
161 163 166 170 172 171 170 170 170 170 171 174 174 185 195 206 261 287 301 311 313 317 318 318 319 320 319 317 314 310 308 308 309 311 312 315 320 325 332 338 342 346 350 352
158 162 165 166 167 165 165 165 167 167 170 178 181 187 200 217 250 281 301 311 316 320 320 319 320 322 322 321 321 318 315 314 314 316 317 319 320 323 328 334 339 343 348 351
153 157 161 165 166 166 165 164 164 168 175 185 184 193 207 214 235 279 304 316 320 323 324 322 321 323 326 326 324 321 318 317 317 318 320 320 321 322 324 328 334 339 344 348
151 154 158 160 161 163 166 166 166 172 179 184 190 202 205 210 239 283 305 316 323 326 329 328 328 327 325 325 323 321 321 320 319 318 318 318 319 320 321 324 329 333 339 344
152 155 156 154 154 158 161 166 166 170 177 187 196 201 210 228 258 293 311 317 321 327 330 330 330 331 329 326 324 322 321 322 323 321 319 318 318 319 320 322 325 329 332 337
150 155 155 154 156 159 163 167 173 176 182 192 202 214 226 238 265 297 313 319 321 326 331 332 332 330 329 328 327 325 322 323 324 322 320 319 318 318 319 320 322 324 326 329
149 152 155 159 165 167 170 173 175 179 184 193 207 215 223 237 260 286 303 313 320 324 329 333 335 334 332 330 329 327 325 323 323 322 320 319 319 316 315 316 317 319 321 322
157 159 165 168 170 172 175 178 180 186 189 191 204 213 221 232 251 275 298 315 323 327 330 333 334 335 334 332 329 327 324 323 322 321 320 318 318 316 314 312 312 313 314 316
166 168 172 174 177 180 183 184 184 185 188 192 206 213 221 229 249 279 308 329 335 335 333 334 335 335 334 331 328 326 324 323 322 321 319 318 316 315 313 311 309 307 307 308
171 174 176 180 183 184 184 184 184 185 189 195 205 214 218 232 259 292 318 330 333 332 330 329 331 331 330 330 328 326 324 322 321 320 318 317 316 315 313 312 310 307 304 302
179 181 184 186 187 188 187 187 188 189 191 198 206 213 221 239 267 295 313 323 326 327 327 327 328 328 328 326 325 324 322 321 320 318 317 315 314 312 311 310 309 308 305 301
187 189 192 193 193 193 192 191 194 197 199 204 212 221 237 254 274 292 306 314 320 323 323 322 323 324 324 323 322 321 319 318 317 317 316 314 312 310 309 307 305 304 303 301
193 195 197 198 201 201 200 205 208 211 215 224 234 244 257 270 284 295 303 308 313 316 317 317 317 318 318 317 317 317 316 316 316 315 314 313 311 309 307 305 302 301 299 298
200 203 205 208 213 215 213 219 223 226 232 242 251 261 271 280 286 292 299 303 305 307 309 310 312 313 313 314 315 315 315 315 315 314 313 311 309 307 305 303 300 297 296 294
209 212 215 219 223 222 227 232 238 243 248 254 260 268 275 282 287 293 296 299 302 305 307 308 309 310 311 312 313 313 313 313 313 312 311 309 308 306 304 302 299 296 293 292
220 222 225 227 232 234 237 243 249 254 257 261 266 272 277 282 287 291 294 297 300 303 305 306 307 309 310 311 311 311 312 312 312 311 310 308 306 305 302 300 297 295 291 288
229 230 233 236 241 245 248 252 257 262 265 266 271 275 278 282 286 290 293 295 297 300 302 303 306 308 309 309 310 310 310 310 311 310 309 307 306 304 302 300 297 294 290 286
234 237 239 243 249 252 255 258 262 266 268 271 273 276 279 283 286 289 291 293 296 298 300 302 304 306 307 308 308 309 310 310 309 308 307 306 305 304 302 299 296 293 290 285
241 243 246 249 253 255 259 262 265 267 270 273 275 278 280 283 286 288 290 292 294 296 299 301 303 305 306 307 308 308 308 308 308 307 306 306 305 303 302 299 296 292 288 284
245 248 251 253 255 258 260 263 266 269 271 274 276 278 281 284 286 288 290 292 294 296 299 301 303 304 305 306 307 308 308 308 308 308 307 306 305 304 302 300 296 292 288 283
250 252 254 256 258 260 262 265 268 270 272 274 276 279 281 283 285 287 289 292 294 296 298 300 302 303 304 305 306 307 308 308 308 308 307 306 305 305 303 301 298 294 290 285
253 255 257 258 260 262 264 266 269 271 272 274 277 279 281 283 286 287 289 291 293 295 297 299 301 302 303 305 306 307 307 307 307 307 307 306 305 304 302 300 297 295 291 286
Height
5810 5817 5823 5828 5833 5838 5842 5846 5850 5852 5855 5857 5858 5860 5862 5862 5863 5864 5864 5864 5864 5864 5864 5863 5862 5862 5861 5860 5859 5858 5857 5856 5855 5854 5852 5850 5848 5845 5842 5839 5836 5832 5828 5824
5811 5817 5822 5827 5832 5837 5841 5845 5849 5851 5854 5856 5858 5860 5861 5862 5863 5863 5864 5864 5863 5863 5863 5862 5861 5860 5859 5858 5857 5856 5856 5855 5853 5852 5851 5849 5847 5844 5841 5838 5835 5831 5827 5823
5812 5818 5823 5828 5833 5837 5841 5845 5848 5851 5854 5856 5859 5860 5861 5862 5863 5863 5863 5863 5862 5862 5861 5861 5860 5859 5858 5857 5856 5855 5854 5853 5852 5851 5849 5848 5845 5843 5840 5837 5834 5830 5826 5822
5813 5819 5824 5829 5833 5837 5841 5845 5848 5851 5854 5857 5860 5861 5861 5862 5862 5862 5862 5862 5861 5861 5860 5860 5859 5858 5857 5856 5855 5854 5853 5852 5851 5849 5848 5846 5844 5842 5839 5836 5833 5829 5825 5821
5815 5820 5825 5829 5834 5837 5841 5845 5848 5851 5854 5857 5859 5861 5862 5861 5862 5862 5861 5861 5860 5860 5859 5859 5858 5857 5856 5855 5854 5853 5852 5851 5850 5848 5847 5845 5843 5841 5838 5835 5832 5829 5825 5821
5818 5822 5826 5830 5834 5838 5842 5846 5849 5852 5855 5858 5859 5861 5861 5861 5861 5861 5860 5860 5859 5859 5858 5858 5857 5856 5855 5853 5852 5851 5850 5849 5848 5847 5845 5843 5842 5840 5837 5834 5831 5828 5824 5821
5820 5824 5828 5832 5835 5839 5843 5847 5850 5853 5855 5857 5858 5860 5861 5860 5860 5860 5859 5859 5858 5858 5857 5856 5855 5854 5853 5852 5851 5850 5849 5848 5847 5845 5844 5842 5840 5838 5836 5833 5830 5827 5824 5821
5823 5827 5830 5833 5836 5839 5843 5847 5851 5854 5855 5856 5857 5858 5860 5859 5859 5858 5858 5858 5857 5857 5856 5855 5854 5853 5852 5851 5850 5849 5848 5847 5845 5844 5842 5840 5838 5836 5834 5832 5829 5826 5823 5820
5826 5829 5832 5834 5837 5841 5843 5846 5850 5853 5855 5856 5857 5858 5858 5857 5858 5857 5857 5856 5856 5855 5854 5853 5852 5851 5850 5849 5848 5847 5846 5845 5843 5842 5840 5839 5837 5835 5832 5830 5828 5825 5822 5819
5828 5831 5833 5836 5839 5842 5844 5846 5850 5852 5854 5855 5856 5856 5857 5856 5856 5856 5855 5855 5854 5854 5853 5852 5851 5850 5849 5848 5846 5845 5844 5843 5841 5840 5838 5836 5834 5832 5830 5828 5826 5823 5821 5818
5829 5833 5836 5837 5840 5842 5845 5847 5849 5851 5852 5854 5854 5857 5855 5855 5854 5854 5854 5853 5853 5852 5851 5850 5849 5848 5847 5846 5845 5843 5842 5841 5839 5837 5836 5834 5832 5830 5828 5826 5823 5821 5819 5816
5831 5834 5836 5838 5840 5842 5844 5846 5848 5850 5851 5852 5853 5856 5853 5853 5853 5852 5852 5852 5851 5850 5850 5849 5848 5846 5845 5844 5843 5841 5840 5838 5837 5835 5833 5831 5829 5827 5825 5823 5820 5818 5816 5814
5832 5835 5837 5839 5842 5843 5843 5845 5846 5848 5849 5850 5851 5854 5851 5851 5851 5851 5850 5850 5849 5848 5848 5847 5846 5845 5843 5842 5841 5839 5837 5836 5834 5832 5830 5828 5826 5824 5821 5819 5817 5815 5813 5811
5832 5835 5838 5840 5840 5841 5842 5843 5845 5846 5847 5848 5849 5849 5849 5849 5849 5849 5848 5848 5847 5847 5846 5845 5844 5843 5841 5840 5838 5837 5835 5833 5831 5829 5827 5825 5822 5820 5818 5815 5813 5811 5809 5807
5832 5834 5835 5837 5838 5840 5841 5842 5843 5844 5845 5846 5847 5847 5847 5847 5847 5847 5846 5846 5845 5845 5844 5843 5842 5840 5839 5837 5835 5833 5831 5829 5827 5825 5823 5821 5818 5816 5813 5811 5809 5807 5805 5803
5831 5833 5834 5836 5837 5838 5839 5840 5841 5842 5843 5844 5844 5845 5845 5845 5845 5845 5844 5844 5843 5842 5841 5840 5839 5838 5836 5834 5832 5830 5828 5825 5823 5821 5818 5816 5813 5811 5808 5806 5804 5802 5800 5798
5829 5831 5833 5835 5835 5837 5838 5839 5840 5840 5841 5842 5842 5843 5842 5842 5842 5842 5842 5841 5840 5839 5838 5837 5836 5834 5832 5830 5828 5826 5823 5820 5818 5815 5813 5810 5807 5805 5802 5800 5798 5796 5794 5792
5828 5829 5831 5832 5834 5835 5838 5836 5837 5838 5839 5839 5839 5840 5840 5840 5839 5839 5838 5838 5837 5836 5835 5833 5832 5830 5828 5826 5823 5821 5818 5815 5812 5809 5806 5803 5800 5797 5795 5793 5790 5789 5787 5786
5826 5828 5829 5830 5831 5833 5834 5834 5834 5835 5836 5836 5836 5836 5836 5836 5835 5835 5834 5834 5833 5832 5830 5829 5827 5825 5822 5820 5817 5815 5812 5809 5806 5803 5799 5796 5793 5790 5787 5785 5782 5780 5779 5777
5823 5825 5827 5827 5828 5830 5832 5831 5831 5833 5833 5833 5832 5832 5832 5832 5831 5832 5830 5829 5827 5826 5824 5823 5821 5819 5816 5814 5811 5808 5804 5801 5798 5794 5791 5787 5784 5781 5778 5775 5773 5770 5769 5767
5820 5821 5823 5823 5824 5825 5827 5826 5827 5829 5830 5828 5828 5828 5827 5827 5827 5826 5824 5823 5822 5820 5818 5816 5814 5812 5809 5806 5803 5800 5796 5793 5789 5785 5781 5778 5774 5770 5767 5764 5761 5759 5757 5756
5815 5817 5818 5819 5820 5823 5821 5822 5823 5824 5823 5823 5822 5822 5822 5821 5820 5819 5818 5816 5815 5813 5811 5809 5807 5804 5801 5798 5795 5791 5787 5783 5779 5775 5771 5767 5763 5758 5754 5751 5748 5745 5743 5742
5810 5812 5813 5814 5816 5816 5816 5816 5816 5817 5816 5816 5816 5816 5815 5814 5813 5812 5811 5809 5807 5805 5803 5801 5798 5795 5792 5788 5785 5781 5777 5772 5768 5764 5759 5754 5749 5744 5740 5736 5733 5730 5728 5726
5804 5805 5806 5807 5808 5808 5808 5809 5809 5809 5809 5809 5809 5808 5808 5807 5805 5804 5802 5801 5799 5797 5794 5792 5789 5785 5782 5778 5774 5769 5765 5760 5755 5750 5745 5740 5734 5729 5724 5720 5716 5713 5711 5710
5797 5798 5798 5799 5800 5800 5801 5801 5801 5801 5801 5801 5801 5800 5799 5798 5797 5795 5793 5791 5789 5787 5784 5781 5778 5774 5770 5766 5762 5757 5752 5747 5741 5736 5730 5725 5719 5714 5709 5704 5700 5696 5694 5692
5788 5789 5790 5791 5792 5792 5793 5793 5793 5793 5793 5792 5792 5791 5790 5788 5787 5785 5783 5781 5779 5776 5773 5770 5766 5762 5758 5753 5749 5744 5738 5732 5726 5721 5715 5709 5704 5698 5693 5688 5685 5680 5677 5675